This is the latest recevied weather packets stored in our database for station/object KE8WMS. If no packets are shown the sender has not sent any weather packets the latest 1 day(s).
| Time | Temp. | Humidity | Pressure | Rain* | Wind** | Luminosity | Snow |
|---|---|---|---|---|---|---|---|
| 1778001287 | 17.78° C | 74% | 1003.6 hPa | 0 mm | 1.79 m/s, 231° | 115 W/m² | - |
| 1778000984 | 17.78° C | 74% | 1003.6 hPa | 0 mm | 0.45 m/s, 207° | 133 W/m² | - |
| 1778000680 | 17.78° C | 73% | 1003.8 hPa | 0 mm | 1.79 m/s, 229° | 150 W/m² | - |
| 1778000376 | 17.78° C | 74% | 1003.4 hPa | 0 mm | 0.45 m/s, 256° | 154 W/m² | - |
| 1778000072 | 17.78° C | 75% | 1003.3 hPa | 0 mm | 0 m/s | 207 W/m² | - |
| 1777999767 | 17.22° C | 75% | 1003.5 hPa | 0 mm | 0.89 m/s, 245° | 95 W/m² | - |
| 1777999464 | 17.22° C | 75% | 1003.6 hPa | 0 mm | 0 m/s | 66 W/m² | - |
| 1777999162 | 17.22° C | 74% | 1003.5 hPa | 0 mm | 0.89 m/s, 285° | 91 W/m² | - |
| 1777998861 | 17.22° C | 74% | 1003.4 hPa | 0 mm | 0.45 m/s, 355° | 88 W/m² | - |
| 1777998560 | 17.78° C | 73% | 1003.5 hPa | 0 mm | 0.45 m/s, 223° | 88 W/m² | - |
| 1777998255 | 18.33° C | 71% | 1003.5 hPa | 0 mm | 0.45 m/s, 230° | 95 W/m² | - |
| 1777997952 | 18.89° C | 67% | 1003.6 hPa | 0 mm | 0.45 m/s, 220° | 101 W/m² | - |
| 1777997649 | 18.89° C | 66% | 1003.5 hPa | 0 mm | 0.45 m/s, 225° | 81 W/m² | - |
| 1777997346 | 19.44° C | 66% | 1003.3 hPa | 0 mm | 0.89 m/s, 221° | 119 W/m² | - |
| 1777997044 | 19.44° C | 66% | 1003.4 hPa | 0 mm | 0.89 m/s, 214° | 204 W/m² | - |
| 1777996741 | 19.44° C | 66% | 1003.5 hPa | 0 mm | 0.89 m/s, 236° | 167 W/m² | - |
| 1777996436 | 20° C | 65% | 1003.4 hPa | 0 mm | 0.45 m/s, 202° | 136 W/m² | - |
| 1777996133 | 20.56° C | 63% | 1003.1 hPa | 0 mm | 2.24 m/s, 253° | 213 W/m² | - |
| 1777995830 | 21.11° C | 62% | 1002.9 hPa | 0 mm | 0.89 m/s, 269° | 529 W/m² | - |
| 1777995526 | 20.56° C | 62% | 1002.7 hPa | 0 mm | 0.45 m/s, 224° | 549 W/m² | - |
| 1777995223 | 20° C | 63% | 1002.6 hPa | 0 mm | 1.79 m/s, 322° | 494 W/m² | - |
| 1777994921 | 20° C | 63% | 1002.6 hPa | 0 mm | 1.79 m/s, 245° | 330 W/m² | - |
| 1777994618 | 20° C | 63% | 1002.1 hPa | 0 mm | 1.79 m/s, 269° | 458 W/m² | - |
| 1777994317 | 20° C | 64% | 1002.1 hPa | 0 mm | 1.34 m/s, 237° | 426 W/m² | - |
| 1777994014 | 20.56° C | 62% | 1001.9 hPa | 0 mm | 1.79 m/s, 207° | 486 W/m² | - |
* Rain latest hour (hover to see other rain measurements)
** Current wind speed in m/s (hover to see current wind gust speed)